Weather in Ozernoye

Russia / Jewish Autonomous Oblast     47°44′59″N   131°08′09″E
В апреле 2022 года жителям России запретили посещать сайт meteo.paraplan.net по решению Генеральной прокуратуры. Аудитория сайта уменьшилась в 10 раз. Владельцы сайта не видят смысла в поддержке погодного сервера в таких условиях. Сайт будет закрыт в октябре.
temp.,
°C
wind,
m/s
gust,
m/s
humid.,
%
clouds,
%
prec.,
mm/h
press.,
hPa
HPBL,
m
3 october, mon
mon301:00+12nw3683100 0.0 1014117
04:00+9nnw488885 0.0 1013157
07:00+10nnw5981100 0.0 1014342
10:00+9nnw81277100 0.0 1014639
13:00+6nnw91478100 0.2 1014648
16:00+4nnw81484100 2.0 1016787
19:00+3nw71380100 0.9 1017881
22:00+3nw51364100 1.0 10181008
4 october, tue
tue401:000w34730 0.0 101857
04:00−1w35740 0.0 101876
07:00−2w46730 0.0 1018106
10:00+2nw812505 0.0 10181371
13:00+6nw81137100 0.0 10162153
16:00+7nw81135100 0.0 10162261
19:00+4nw510455 0.0 1018288
22:00+1wnw49550 0.0 1018200
5 october, wed
wed501:000w47570 0.0 1019123
04:00−1wnw37590 0.0 1019110
07:00−2w36610 0.0 102085
10:00+4wnw510390 0.0 10201174
13:00+7wnw7931100 0.0 10192537
16:00+8wnw7932100 0.0 10182420
19:00+4wnw344519 0.0 101850
22:00+1w34525 0.0 102050
6 october, thu
thu601:000w35565 0.0 102067
04:000w47580 0.0 1021112
07:00−1w35580 0.0 102166
10:00+5w47390 0.0 1022445
13:00+10w69259 0.0 10202619
16:00+11w782571 0.0 10192765
19:00+6w48393 0.0 1020122
22:00+3w35485 0.0 102168
7 october, fri
fri701:00+2w22510 0.0 102117
04:00+1w22530 0.0 102111
07:000wnw22550 0.0 102211
10:00+6wnw23390 0.0 1023262
13:00+10w24270 0.0 10221853
16:00+12w242540 0.0 10212416
19:00+7w223971 0.0 102213
22:00+5w22445 0.0 102318